Location: Chuathbaluk
(61.5726°N, 159.2454°W)
Time: 03:07:53
(UTC+00:00)

Transit 2A - Pass Details

Date: 01 December 2020
Orbit: 599 x 960 km, 66.7° (Epoch: 26 January)

Event Time Altitude Azimuth Distance (km) Brightness Sun altitude
Rises 09:30:43 0° 297° (WNW) 3,478 9.8 -49.2°
Enters shadow 09:31:33 - 298° (WNW) 3,160 9.6 -49.2°
Reaches altitude 10° 09:33:21 10° 301° (WNW) 2,486 - -49.3°
Maximum altitude 09:39:02 66° 23° (NNE) 864 - -49.5°
Drops below altitude 10° 09:44:09 10° 106° (ESE) 2,234 - -49.7°
Sets 09:46:24 0° 110° (ESE) 3,099 - -49.7°
